Preview of NWS' New Version of Forecast
This preview is not operational and should not be used for support decisions.

Regional Weather Roundup (RWR)

Issued by Gray - Portland, ME (GYX)

                            
000
ASUS41 KGYX 242205
RWRGYX
WEATHER ROUNDUP FOR MAINE AND NEW HAMPSHIRE
NATIONAL WEATHER SERVICE GRAY ME
600 PM EDT MON JUN 24 2019

MEZ002-005-006-010-012-015-018-020-021-024-026-027-029-242300-
MAINE
  
CITY           SKY/WX    TMP DP  RH WIND       PRES   REMARKS
PORTLAND       FAIR      67  49  52 S7        29.85S                  
SANFORD        FAIR      72  49  44 VRB7      29.84S                  
BAR HARBOR     FAIR      66  44  45 SW13      29.84R                  
WISCASSET      FAIR      66  44  45 VRB6      29.86S                  
ROCKLAND       FAIR      63  45  51 SW9       29.86R                  
FRYEBURG       FAIR      82  41  23 NE3       29.82S                  
LEWISTONAUBURN FAIR      71  49  45 SE10      29.83R                  
AUGUSTA        FAIR      74  51  44 S10G17    29.83R                  
WATERVILLE     FAIR      77  45  32 CALM      29.80S                  
BANGOR         FAIR      77  41  27 NW9       29.82S                  
GREENVILLE       N/A     70  36  28 N10       29.84S                  
MILLINOCKET    FAIR      75  38  26 NW7       29.83R                  
HOULTON        FAIR      73  40  30 N12       29.80R                  
PRESQUE ISLE   FAIR      69  39  33 NW9       29.84R                  
FRENCHVILLE    FAIR      70  37  29 N15       29.84R                  
CARIBOU        FAIR      70  38  31 N10       29.82R                  
$$

NHZ002-005-008-009-011-012-014-242300-
NEW HAMPSHIRE
  
CITY           SKY/WX    TMP DP  RH WIND       PRES   REMARKS
PORTSMOUTH     PTSUNNY   69  47  44 SE12      29.83R                  
ROCHESTER      FAIR      74  44  34 S9        29.83S                  
NASHUA         FAIR      84  52  33 W8        29.81S                  
MANCHESTER     PTSUNNY   85  46  25 W6        29.80S                  
CONCORD        FAIR      83  47  28 NW6       29.81F                  
LACONIA        FAIR      81  47  30 VRB6      29.83S                  
PLYMOUTH       FAIR      80  44  27 NW6       29.82S                  
BERLIN         FAIR      78  40  25 NW6       29.85S                  
WHITEFIELD     FAIR      78  40  25 NW5       29.85S                  
JAFFREY        FAIR      82  51  34 NW3       29.86S                  
KEENE          FAIR      79  53  40 N5        29.83S                  
LEBANON        FAIR      82  45  27 NW6       29.82S                  
MT WASHINGTON  MOSUNNY   52  32  46 NW26G33     N/A                   
$$

VTZ005-007-008-242300-
VERMONT
  
CITY           SKY/WX    TMP DP  RH WIND       PRES   REMARKS
ST JOHNSBURY     N/A     79  40  24 MISG      29.82S                  
MONTPELIER     FAIR      75  45  34 NW8       29.89S                  
BURLINGTON     FAIR      78  45  30 NW8       29.83S                  
$$

MAZ007-012-024-CTZ003-RIZ002-NYZ038-NYZ072-242300-
SOUTHERN NEW ENGLAND AND NY
  
CITY           SKY/WX    TMP DP  RH WIND       PRES   REMARKS
BOSTON         PTSUNNY   72  52  49 E13       29.82F                  
WORCESTER      FAIR      78  57  48 W6        29.86S                  
NANTUCKET      FAIR      70  59  68 SE3       29.86S                  
PROVIDENCE     PTSUNNY   81  58  45 W10G20    29.82S                  
HARTFORD       PTSUNNY   84  53  34 W8        29.82S                  
ALBANY         PTSUNNY   81  56  42 S6        29.82F                  
NEW YORK CITY  PTSUNNY   83  54  36 S12       29.82F                  
$$

ANZ081-ANZ082-ANZ150-NHZ014-MEZ023>029-242300-
COASTAL MARINE OBSERVATIONS
  
STATION/POSITION TIME  TEMP    WIND        PRES    WAVE
                       AIR SEA DIR/SP/G            HT/PER
                 (UTC) (F)     (DEG/KT/KT) (MB)    (FT/S)
ISLE OF SHOALS   2100   61     130/ 11/ 12 1009.8R
JEFFREYS LEDGE   2138      59                N/A     1/10
CASHES LEDGE BUO 2150   58 56  170/ 10/ 12 1011.3R   1/10
GEORGES BANK BUO 2150   58 54  330/  6/  6 1012.2R   3/ 6
$$

.............KEY..............
   WCI - WIND CHILL
   TC  - TEMPERATURE IN CELSIUS
   VSB - VISIBILITY IN MILES
   HX  - HEAT INDEX
   FAIR- INDICATES FEW OR NO CLOUDS BELOW 12,000 FT, WITH NO 
         SIGNIFICANT WEATHER AND/OR OBSTRUCTIONS TO VISIBILITY.